owner,sensor,date,latitude,longitude,sea_surface_height_above_sea_level,qcFlag 
COMPS,ioos:station:USF.COMPS:FHP:1,2019-09-01T00:54:00,28.1530,-82.8010,-0.332,11114222 
COMPS,ioos:station:USF.COMPS:FHP:1,2019-09-01T01:54:00,28.1530,-82.8010,-0.212,11114222 
COMPS,ioos:station:USF.COMPS:FHP:1,2019-09-01T02:54:00,28.1530,-82.8010,0.025,11111222 
COMPS,ioos:station:USF.COMPS:FHP:1,2019-09-01T03:54:00,28.1530,-82.8010,0.215,11111222 
COMPS,ioos:station:USF.COMPS:FHP:1,2019-09-01T04:54:00,28.1530,-82.8010,0.429,11111222 
COMPS,ioos:station:USF.COMPS:FHP:1,2019-09-01T05:54:00,28.1530,-82.8010,0.546,11111222 
COMPS,ioos:station:USF.COMPS:FHP:1,2019-09-01T06:48:00,28.1530,-82.8010,0.556,11111222 
COMPS,ioos:station:USF.COMPS:FHP:1,2019-09-01T07:54:00,28.1530,-82.8010,0.46,11111222 
COMPS,ioos:station:USF.COMPS:FHP:1,2019-09-01T08:54:00,28.1530,-82.8010,0.286,11111222 
COMPS,ioos:station:USF.COMPS:FHP:1,2019-09-01T09:54:00,28.1530,-82.8010,0.161,11111222 
COMPS,ioos:station:USF.COMPS:FHP:1,2019-09-01T10:54:00,28.1530,-82.8010,0.014,11111222 
COMPS,ioos:station:USF.COMPS:FHP:1,2019-09-01T11:48:00,28.1530,-82.8010,-0.104,11114222 
COMPS,ioos:station:USF.COMPS:FHP:1,2019-09-01T12:54:00,28.1530,-82.8010,-0.101,11114222 
COMPS,ioos:station:USF.COMPS:FHP:1,2019-09-01T13:54:00,28.1530,-82.8010,0.028,11111222 
COMPS,ioos:station:USF.COMPS:FHP:1,2019-09-01T14:54:00,28.1530,-82.8010,0.236,11111222 
COMPS,ioos:station:USF.COMPS:FHP:1,2019-09-01T15:54:00,28.1530,-82.8010,0.517,11111222 
COMPS,ioos:station:USF.COMPS:FHP:1,2019-09-01T16:54:00,28.1530,-82.8010,0.699,11111222 
COMPS,ioos:station:USF.COMPS:FHP:1,2019-09-01T17:54:00,28.1530,-82.8010,0.803,11111222 
COMPS,ioos:station:USF.COMPS:FHP:1,2019-09-01T18:54:00,28.1530,-82.8010,0.782,11111222 
COMPS,ioos:station:USF.COMPS:FHP:1,2019-09-01T19:54:00,28.1530,-82.8010,0.66,11111222 
COMPS,ioos:station:USF.COMPS:FHP:1,2019-09-01T20:54:00,28.1530,-82.8010,0.471,11111222 
COMPS,ioos:station:USF.COMPS:FHP:1,2019-09-01T21:54:00,28.1530,-82.8010,0.239,11111222 
COMPS,ioos:station:USF.COMPS:FHP:1,2019-09-01T22:54:00,28.1530,-82.8010,0.021,11111222 
COMPS,ioos:station:USF.COMPS:FHP:1,2019-09-01T23:54:00,28.1530,-82.8010,-0.129,11114222 
COMPS,ioos:station:USF.COMPS:FHP:1,2019-09-02T00:54:00,28.1530,-82.8010,-0.223,11114222 
COMPS,ioos:station:USF.COMPS:FHP:1,2019-09-02T01:54:00,28.1530,-82.8010,-0.194,11114222 
COMPS,ioos:station:USF.COMPS:FHP:1,2019-09-02T02:54:00,28.1530,-82.8010,-0.029,11114222 
COMPS,ioos:station:USF.COMPS:FHP:1,2019-09-02T03:54:00,28.1530,-82.8010,0.183,11111222 
COMPS,ioos:station:USF.COMPS:FHP:1,2019-09-02T04:54:00,28.1530,-82.8010,0.367,11111222 
COMPS,ioos:station:USF.COMPS:FHP:1,2019-09-02T05:54:00,28.1530,-82.8010,0.55,11111222 
COMPS,ioos:station:USF.COMPS:FHP:1,2019-09-02T06:54:00,28.1530,-82.8010,0.585,11111222 
COMPS,ioos:station:USF.COMPS:FHP:1,2019-09-02T07:54:00,28.1530,-82.8010,0.49,11111222 
COMPS,ioos:station:USF.COMPS:FHP:1,2019-09-02T08:54:00,28.1530,-82.8010,0.362,11111222 
COMPS,ioos:station:USF.COMPS:FHP:1,2019-09-02T09:54:00,28.1530,-82.8010,0.214,11111222 
COMPS,ioos:station:USF.COMPS:FHP:1,2019-09-02T10:54:00,28.1530,-82.8010,0.037,11111222 
COMPS,ioos:station:USF.COMPS:FHP:1,2019-09-02T11:54:00,28.1530,-82.8010,-0.123,11114222 
COMPS,ioos:station:USF.COMPS:FHP:1,2019-09-02T14:54:00,28.1530,-82.8010,-0.036,11114222 
COMPS,ioos:station:USF.COMPS:FHP:1,2019-09-02T15:54:00,28.1530,-82.8010,0.17,11111222 
COMPS,ioos:station:USF.COMPS:FHP:1,2019-09-02T16:54:00,28.1530,-82.8010,0.376,11111222 
COMPS,ioos:station:USF.COMPS:FHP:1,2019-09-02T17:54:00,28.1530,-82.8010,0.525,11111222 
COMPS,ioos:station:USF.COMPS:FHP:1,2019-09-02T18:54:00,28.1530,-82.8010,0.63,11111222 
COMPS,ioos:station:USF.COMPS:FHP:1,2019-09-02T19:54:00,28.1530,-82.8010,0.569,11111222 
COMPS,ioos:station:USF.COMPS:FHP:1,2019-09-02T20:54:00,28.1530,-82.8010,0.488,11111222 
COMPS,ioos:station:USF.COMPS:FHP:1,2019-09-02T21:54:00,28.1530,-82.8010,0.314,11111222 
COMPS,ioos:station:USF.COMPS:FHP:1,2019-09-02T22:54:00,28.1530,-82.8010,0.159,11111222 
COMPS,ioos:station:USF.COMPS:FHP:1,2019-09-02T23:54:00,28.1530,-82.8010,-0.026,11114222 
COMPS,ioos:station:USF.COMPS:FHP:1,2019-09-03T00:54:00,28.1530,-82.8010,-0.162,11114222 
COMPS,ioos:station:USF.COMPS:FHP:1,2019-09-03T01:54:00,28.1530,-82.8010,-0.196,11114222 
COMPS,ioos:station:USF.COMPS:FHP:1,2019-09-03T02:54:00,28.1530,-82.8010,-0.148,11114222 
COMPS,ioos:station:USF.COMPS:FHP:1,2019-09-03T03:54:00,28.1530,-82.8010,0.02,11111222 
COMPS,ioos:station:USF.COMPS:FHP:1,2019-09-03T04:54:00,28.1530,-82.8010,0.216,11111222 
COMPS,ioos:station:USF.COMPS:FHP:1,2019-09-03T05:54:00,28.1530,-82.8010,0.37,11111222 
COMPS,ioos:station:USF.COMPS:FHP:1,2019-09-03T06:54:00,28.1530,-82.8010,0.475,11111222 
COMPS,ioos:station:USF.COMPS:FHP:1,2019-09-03T07:54:00,28.1530,-82.8010,0.444,11111222 
COMPS,ioos:station:USF.COMPS:FHP:1,2019-09-03T08:54:00,28.1530,-82.8010,0.373,11111222 
COMPS,ioos:station:USF.COMPS:FHP:1,2019-09-03T09:54:00,28.1530,-82.8010,0.244,11111222 
COMPS,ioos:station:USF.COMPS:FHP:1,2019-09-03T10:54:00,28.1530,-82.8010,0.089,11111222 
COMPS,ioos:station:USF.COMPS:FHP:1,2019-09-03T11:54:00,28.1530,-82.8010,-0.09,11114222 
COMPS,ioos:station:USF.COMPS:FHP:1,2019-09-03T12:54:00,28.1530,-82.8010,-0.199,11114222 
COMPS,ioos:station:USF.COMPS:FHP:1,2019-09-03T13:54:00,28.1530,-82.8010,-0.268,11114222 
COMPS,ioos:station:USF.COMPS:FHP:1,2019-09-03T14:54:00,28.1530,-82.8010,-0.247,11114222 
COMPS,ioos:station:USF.COMPS:FHP:1,2019-09-03T15:54:00,28.1530,-82.8010,-0.128,11114222 
COMPS,ioos:station:USF.COMPS:FHP:1,2019-09-03T16:54:00,28.1530,-82.8010,0.052,11111222 
COMPS,ioos:station:USF.COMPS:FHP:1,2019-09-03T17:54:00,28.1530,-82.8010,0.206,11111222 
COMPS,ioos:station:USF.COMPS:FHP:1,2019-09-03T18:54:00,28.1530,-82.8010,0.377,11111222 
COMPS,ioos:station:USF.COMPS:FHP:1,2019-09-03T19:54:00,28.1530,-82.8010,0.409,11111222 
COMPS,ioos:station:USF.COMPS:FHP:1,2019-09-03T20:54:00,28.1530,-82.8010,0.4,11111222 
COMPS,ioos:station:USF.COMPS:FHP:1,2019-09-03T21:54:00,28.1530,-82.8010,0.365,11111222 
COMPS,ioos:station:USF.COMPS:FHP:1,2019-09-03T22:54:00,28.1530,-82.8010,0.216,11111222 
COMPS,ioos:station:USF.COMPS:FHP:1,2019-09-03T23:54:00,28.1530,-82.8010,0.077,11111222 
COMPS,ioos:station:USF.COMPS:FHP:1,2019-09-04T00:54:00,28.1530,-82.8010,-0.015,11114222 
COMPS,ioos:station:USF.COMPS:FHP:1,2019-09-04T01:54:00,28.1530,-82.8010,-0.032,11114222 
COMPS,ioos:station:USF.COMPS:FHP:1,2019-09-04T02:54:00,28.1530,-82.8010,0.011,11111222 
COMPS,ioos:station:USF.COMPS:FHP:1,2019-09-04T03:54:00,28.1530,-82.8010,0.116,11111222 
COMPS,ioos:station:USF.COMPS:FHP:1,2019-09-04T04:54:00,28.1530,-82.8010,0.246,11111222 
COMPS,ioos:station:USF.COMPS:FHP:1,2019-09-04T05:54:00,28.1530,-82.8010,0.367,11111222 
COMPS,ioos:station:USF.COMPS:FHP:1,2019-09-04T06:54:00,28.1530,-82.8010,0.477,11111222 
COMPS,ioos:station:USF.COMPS:FHP:1,2019-09-04T07:54:00,28.1530,-82.8010,0.553,11111222 
COMPS,ioos:station:USF.COMPS:FHP:1,2019-09-04T08:54:00,28.1530,-82.8010,0.508,11111222 
COMPS,ioos:station:USF.COMPS:FHP:1,2019-09-04T09:54:00,28.1530,-82.8010,0.413,11111222 
COMPS,ioos:station:USF.COMPS:FHP:1,2019-09-04T10:54:00,28.1530,-82.8010,0.283,11111222 
COMPS,ioos:station:USF.COMPS:FHP:1,2019-09-04T11:54:00,28.1530,-82.8010,0.117,11111222 
COMPS,ioos:station:USF.COMPS:FHP:1,2019-09-04T12:54:00,28.1530,-82.8010,-0.051,11114222 
COMPS,ioos:station:USF.COMPS:FHP:1,2019-09-04T13:54:00,28.1530,-82.8010,-0.149,11114222 
COMPS,ioos:station:USF.COMPS:FHP:1,2019-09-04T14:54:00,28.1530,-82.8010,-0.192,11114222 
COMPS,ioos:station:USF.COMPS:FHP:1,2019-09-04T15:54:00,28.1530,-82.8010,-0.181,11114222 
COMPS,ioos:station:USF.COMPS:FHP:1,2019-09-04T16:54:00,28.1530,-82.8010,-0.08,11114222 
COMPS,ioos:station:USF.COMPS:FHP:1,2019-09-04T17:54:00,28.1530,-82.8010,0.052,11111222 
COMPS,ioos:station:USF.COMPS:FHP:1,2019-09-04T18:54:00,28.1530,-82.8010,0.235,11111222 
COMPS,ioos:station:USF.COMPS:FHP:1,2019-09-04T19:54:00,28.1530,-82.8010,0.367,11111222 
COMPS,ioos:station:USF.COMPS:FHP:1,2019-09-04T20:54:00,28.1530,-82.8010,0.392,11111222 
COMPS,ioos:station:USF.COMPS:FHP:1,2019-09-04T21:54:00,28.1530,-82.8010,0.368,11111222 
COMPS,ioos:station:USF.COMPS:FHP:1,2019-09-04T22:54:00,28.1530,-82.8010,0.296,11111222 
COMPS,ioos:station:USF.COMPS:FHP:1,2019-09-04T23:54:00,28.1530,-82.8010,0.219,11111222 
COMPS,ioos:station:USF.COMPS:FHP:1,2019-09-05T00:54:00,28.1530,-82.8010,0.137,11111222 
COMPS,ioos:station:USF.COMPS:FHP:1,2019-09-05T01:54:00,28.1530,-82.8010,0.114,11111222 
COMPS,ioos:station:USF.COMPS:FHP:1,2019-09-05T02:54:00,28.1530,-82.8010,0.159,11111222 
COMPS,ioos:station:USF.COMPS:FHP:1,2019-09-05T03:54:00,28.1530,-82.8010,0.223,11111222 
COMPS,ioos:station:USF.COMPS:FHP:1,2019-09-05T04:54:00,28.1530,-82.8010,0.297,11111222 
COMPS,ioos:station:USF.COMPS:FHP:1,2019-09-05T05:54:00,28.1530,-82.8010,0.44,11111222 
COMPS,ioos:station:USF.COMPS:FHP:1,2019-09-05T06:54:00,28.1530,-82.8010,0.558,11111222 
COMPS,ioos:station:USF.COMPS:FHP:1,2019-09-05T07:54:00,28.1530,-82.8010,0.627,11111222 
COMPS,ioos:station:USF.COMPS:FHP:1,2019-09-05T08:54:00,28.1530,-82.8010,0.604,11111222 
COMPS,ioos:station:USF.COMPS:FHP:1,2019-09-05T09:54:00,28.1530,-82.8010,0.543,11111222 
COMPS,ioos:station:USF.COMPS:FHP:1,2019-09-05T10:54:00,28.1530,-82.8010,0.494,11111222 
COMPS,ioos:station:USF.COMPS:FHP:1,2019-09-05T11:54:00,28.1530,-82.8010,0.356,11111222 
COMPS,ioos:station:USF.COMPS:FHP:1,2019-09-05T12:54:00,28.1530,-82.8010,0.199,11111222 
COMPS,ioos:station:USF.COMPS:FHP:1,2019-09-05T13:54:00,28.1530,-82.8010,0.066,11111222 
COMPS,ioos:station:USF.COMPS:FHP:1,2019-09-05T14:54:00,28.1530,-82.8010,-0.036,11114222 
COMPS,ioos:station:USF.COMPS:FHP:1,2019-09-05T15:54:00,28.1530,-82.8010,-0.088,11114222 
COMPS,ioos:station:USF.COMPS:FHP:1,2019-09-05T16:54:00,28.1530,-82.8010,-0.08,11114222 
COMPS,ioos:station:USF.COMPS:FHP:1,2019-09-05T17:54:00,28.1530,-82.8010,-0.022,11114222 
COMPS,ioos:station:USF.COMPS:FHP:1,2019-09-05T18:54:00,28.1530,-82.8010,0.079,11111222 
COMPS,ioos:station:USF.COMPS:FHP:1,2019-09-05T19:54:00,28.1530,-82.8010,0.215,11111222 
COMPS,ioos:station:USF.COMPS:FHP:1,2019-09-05T20:54:00,28.1530,-82.8010,0.292,11111222 
COMPS,ioos:station:USF.COMPS:FHP:1,2019-09-05T21:54:00,28.1530,-82.8010,0.341,11111222 
COMPS,ioos:station:USF.COMPS:FHP:1,2019-09-05T22:54:00,28.1530,-82.8010,0.355,11111222 
COMPS,ioos:station:USF.COMPS:FHP:1,2019-09-05T23:48:00,28.1530,-82.8010,0.335,11111222 
COMPS,ioos:station:USF.COMPS:FHP:1,2019-09-06T00:54:00,28.1530,-82.8010,0.275,11111222 
COMPS,ioos:station:USF.COMPS:FHP:1,2019-09-06T01:54:00,28.1530,-82.8010,0.224,11111222 
COMPS,ioos:station:USF.COMPS:FHP:1,2019-09-06T02:54:00,28.1530,-82.8010,0.243,11111222 
COMPS,ioos:station:USF.COMPS:FHP:1,2019-09-06T03:54:00,28.1530,-82.8010,0.273,11111222 
COMPS,ioos:station:USF.COMPS:FHP:1,2019-09-06T04:54:00,28.1530,-82.8010,0.284,11111222 
COMPS,ioos:station:USF.COMPS:FHP:1,2019-09-06T06:54:00,28.1530,-82.8010,0.418,11111222 
COMPS,ioos:station:USF.COMPS:FHP:1,2019-09-06T07:54:00,28.1530,-82.8010,0.5,11111222 
COMPS,ioos:station:USF.COMPS:FHP:1,2019-09-06T08:54:00,28.1530,-82.8010,0.578,11111222 
COMPS,ioos:station:USF.COMPS:FHP:1,2019-09-06T09:54:00,28.1530,-82.8010,0.61,11111222 
COMPS,ioos:station:USF.COMPS:FHP:1,2019-09-06T10:54:00,28.1530,-82.8010,0.571,11111222 
COMPS,ioos:station:USF.COMPS:FHP:1,2019-09-06T11:54:00,28.1530,-82.8010,0.472,11111222 
COMPS,ioos:station:USF.COMPS:FHP:1,2019-09-06T12:54:00,28.1530,-82.8010,0.327,11111222 
COMPS,ioos:station:USF.COMPS:FHP:1,2019-09-06T13:54:00,28.1530,-82.8010,0.188,11111222 
COMPS,ioos:station:USF.COMPS:FHP:1,2019-09-06T14:54:00,28.1530,-82.8010,0.057,11111222 
COMPS,ioos:station:USF.COMPS:FHP:1,2019-09-06T15:54:00,28.1530,-82.8010,-0.026,11114222 
COMPS,ioos:station:USF.COMPS:FHP:1,2019-09-06T16:54:00,28.1530,-82.8010,-0.036,11114222 
COMPS,ioos:station:USF.COMPS:FHP:1,2019-09-06T17:54:00,28.1530,-82.8010,-0.031,11114222 
COMPS,ioos:station:USF.COMPS:FHP:1,2019-09-06T18:54:00,28.1530,-82.8010,0.008,11111222 
COMPS,ioos:station:USF.COMPS:FHP:1,2019-09-06T19:54:00,28.1530,-82.8010,0.107,11111222 
COMPS,ioos:station:USF.COMPS:FHP:1,2019-09-06T20:54:00,28.1530,-82.8010,0.203,11111222 
COMPS,ioos:station:USF.COMPS:FHP:1,2019-09-06T21:54:00,28.1530,-82.8010,0.264,11111222 
COMPS,ioos:station:USF.COMPS:FHP:1,2019-09-06T22:54:00,28.1530,-82.8010,0.338,11111222 
COMPS,ioos:station:USF.COMPS:FHP:1,2019-09-06T23:54:00,28.1530,-82.8010,0.392,11111222 
COMPS,ioos:station:USF.COMPS:FHP:1,2019-09-07T00:54:00,28.1530,-82.8010,0.356,11111222 
COMPS,ioos:station:USF.COMPS:FHP:1,2019-09-07T01:54:00,28.1530,-82.8010,0.363,11111222 
COMPS,ioos:station:USF.COMPS:FHP:1,2019-09-07T02:54:00,28.1530,-82.8010,0.366,11111222 
COMPS,ioos:station:USF.COMPS:FHP:1,2019-09-07T03:54:00,28.1530,-82.8010,0.359,11111222 
COMPS,ioos:station:USF.COMPS:FHP:1,2019-09-07T04:54:00,28.1530,-82.8010,0.365,11111222 
COMPS,ioos:station:USF.COMPS:FHP:1,2019-09-07T05:54:00,28.1530,-82.8010,0.385,11111222 
COMPS,ioos:station:USF.COMPS:FHP:1,2019-09-07T06:48:00,28.1530,-82.8010,0.406,11111222 
COMPS,ioos:station:USF.COMPS:FHP:1,2019-09-07T07:54:00,28.1530,-82.8010,0.461,11111222 
COMPS,ioos:station:USF.COMPS:FHP:1,2019-09-07T08:54:00,28.1530,-82.8010,0.529,11111222 
COMPS,ioos:station:USF.COMPS:FHP:1,2019-09-07T09:54:00,28.1530,-82.8010,0.564,11111222 
COMPS,ioos:station:USF.COMPS:FHP:1,2019-09-07T10:54:00,28.1530,-82.8010,0.529,11111222 
COMPS,ioos:station:USF.COMPS:FHP:1,2019-09-07T11:54:00,28.1530,-82.8010,0.498,11111222 
COMPS,ioos:station:USF.COMPS:FHP:1,2019-09-07T12:54:00,28.1530,-82.8010,0.43,11111222 
COMPS,ioos:station:USF.COMPS:FHP:1,2019-09-07T13:54:00,28.1530,-82.8010,0.358,11111222 
COMPS,ioos:station:USF.COMPS:FHP:1,2019-09-07T14:54:00,28.1530,-82.8010,0.243,11111222 
COMPS,ioos:station:USF.COMPS:FHP:1,2019-09-07T15:54:00,28.1530,-82.8010,0.135,11111222 
COMPS,ioos:station:USF.COMPS:FHP:1,2019-09-07T16:54:00,28.1530,-82.8010,0.043,11111222 
COMPS,ioos:station:USF.COMPS:FHP:1,2019-09-07T17:54:00,28.1530,-82.8010,-0.032,11114222 
COMPS,ioos:station:USF.COMPS:FHP:1,2019-09-07T18:54:00,28.1530,-82.8010,-0.043,11114222 
COMPS,ioos:station:USF.COMPS:FHP:1,2019-09-07T19:54:00,28.1530,-82.8010,-0.01,11114222 
COMPS,ioos:station:USF.COMPS:FHP:1,2019-09-07T20:54:00,28.1530,-82.8010,0.059,11111222 
COMPS,ioos:station:USF.COMPS:FHP:1,2019-09-07T21:54:00,28.1530,-82.8010,0.143,11111222 
COMPS,ioos:station:USF.COMPS:FHP:1,2019-09-07T22:54:00,28.1530,-82.8010,0.233,11111222 
COMPS,ioos:station:USF.COMPS:FHP:1,2019-09-07T23:48:00,28.1530,-82.8010,0.323,11111222 
COMPS,ioos:station:USF.COMPS:FHP:1,2019-09-08T00:54:00,28.1530,-82.8010,0.399,11111222 
COMPS,ioos:station:USF.COMPS:FHP:1,2019-09-08T01:54:00,28.1530,-82.8010,0.422,11111222 
COMPS,ioos:station:USF.COMPS:FHP:1,2019-09-08T02:54:00,28.1530,-82.8010,0.429,11111222 
COMPS,ioos:station:USF.COMPS:FHP:1,2019-09-08T03:54:00,28.1530,-82.8010,0.418,11111222 
COMPS,ioos:station:USF.COMPS:FHP:1,2019-09-08T04:54:00,28.1530,-82.8010,0.393,11111222 
COMPS,ioos:station:USF.COMPS:FHP:1,2019-09-08T05:54:00,28.1530,-82.8010,0.365,11111222 
COMPS,ioos:station:USF.COMPS:FHP:1,2019-09-08T06:54:00,28.1530,-82.8010,0.362,11111222 
COMPS,ioos:station:USF.COMPS:FHP:1,2019-09-08T07:54:00,28.1530,-82.8010,0.393,11111222 
COMPS,ioos:station:USF.COMPS:FHP:1,2019-09-08T08:54:00,28.1530,-82.8010,0.454,11111222 
COMPS,ioos:station:USF.COMPS:FHP:1,2019-09-08T09:48:00,28.1530,-82.8010,0.536,11111222 
COMPS,ioos:station:USF.COMPS:FHP:1,2019-09-08T10:54:00,28.1530,-82.8010,0.573,11111222 
COMPS,ioos:station:USF.COMPS:FHP:1,2019-09-08T11:54:00,28.1530,-82.8010,0.597,11111222 
COMPS,ioos:station:USF.COMPS:FHP:1,2019-09-08T12:54:00,28.1530,-82.8010,0.593,11111222 
COMPS,ioos:station:USF.COMPS:FHP:1,2019-09-08T13:54:00,28.1530,-82.8010,0.538,11111222 
COMPS,ioos:station:USF.COMPS:FHP:1,2019-09-08T14:54:00,28.1530,-82.8010,0.442,11111222 
COMPS,ioos:station:USF.COMPS:FHP:1,2019-09-08T15:54:00,28.1530,-82.8010,0.351,11111222 
COMPS,ioos:station:USF.COMPS:FHP:1,2019-09-08T16:54:00,28.1530,-82.8010,0.222,11111222 
COMPS,ioos:station:USF.COMPS:FHP:1,2019-09-08T17:54:00,28.1530,-82.8010,0.098,11111222 
COMPS,ioos:station:USF.COMPS:FHP:1,2019-09-08T18:54:00,28.1530,-82.8010,0.019,11111222 
COMPS,ioos:station:USF.COMPS:FHP:1,2019-09-08T19:54:00,28.1530,-82.8010,-0.028,11114222 
COMPS,ioos:station:USF.COMPS:FHP:1,2019-09-08T20:54:00,28.1530,-82.8010,-0.018,11114222 
COMPS,ioos:station:USF.COMPS:FHP:1,2019-09-08T21:54:00,28.1530,-82.8010,0.059,11111222 
COMPS,ioos:station:USF.COMPS:FHP:1,2019-09-08T22:54:00,28.1530,-82.8010,0.178,11111222 
COMPS,ioos:station:USF.COMPS:FHP:1,2019-09-08T23:54:00,28.1530,-82.8010,0.297,11111222 
COMPS,ioos:station:USF.COMPS:FHP:1,2019-09-09T00:54:00,28.1530,-82.8010,0.412,11111222 
COMPS,ioos:station:USF.COMPS:FHP:1,2019-09-09T01:54:00,28.1530,-82.8010,0.489,11111222 
COMPS,ioos:station:USF.COMPS:FHP:1,2019-09-09T02:48:00,28.1530,-82.8010,0.502,11111222 
COMPS,ioos:station:USF.COMPS:FHP:1,2019-09-09T03:54:00,28.1530,-82.8010,0.481,11111222 
COMPS,ioos:station:USF.COMPS:FHP:1,2019-09-09T04:54:00,28.1530,-82.8010,0.442,11111222 
COMPS,ioos:station:USF.COMPS:FHP:1,2019-09-09T05:54:00,28.1530,-82.8010,0.387,11111222 
COMPS,ioos:station:USF.COMPS:FHP:1,2019-09-09T06:54:00,28.1530,-82.8010,0.327,11111222 
COMPS,ioos:station:USF.COMPS:FHP:1,2019-09-09T07:54:00,28.1530,-82.8010,0.304,11111222 
COMPS,ioos:station:USF.COMPS:FHP:1,2019-09-09T08:54:00,28.1530,-82.8010,0.328,11111222 
COMPS,ioos:station:USF.COMPS:FHP:1,2019-09-09T09:54:00,28.1530,-82.8010,0.386,11111222 
COMPS,ioos:station:USF.COMPS:FHP:1,2019-09-09T10:54:00,28.1530,-82.8010,0.481,11111222 
COMPS,ioos:station:USF.COMPS:FHP:1,2019-09-09T11:54:00,28.1530,-82.8010,0.546,11111222 
COMPS,ioos:station:USF.COMPS:FHP:1,2019-09-09T12:54:00,28.1530,-82.8010,0.614,11111222 
COMPS,ioos:station:USF.COMPS:FHP:1,2019-09-09T13:54:00,28.1530,-82.8010,0.624,11111222 
COMPS,ioos:station:USF.COMPS:FHP:1,2019-09-09T14:54:00,28.1530,-82.8010,0.569,11111222 
COMPS,ioos:station:USF.COMPS:FHP:1,2019-09-09T15:54:00,28.1530,-82.8010,0.504,11111222 
COMPS,ioos:station:USF.COMPS:FHP:1,2019-09-09T16:54:00,28.1530,-82.8010,0.369,11111222 
COMPS,ioos:station:USF.COMPS:FHP:1,2019-09-09T17:54:00,28.1530,-82.8010,0.214,11111222 
COMPS,ioos:station:USF.COMPS:FHP:1,2019-09-09T20:54:00,28.1530,-82.8010,-0.08,11114222 
COMPS,ioos:station:USF.COMPS:FHP:1,2019-09-09T21:54:00,28.1530,-82.8010,-0.056,11114222 
COMPS,ioos:station:USF.COMPS:FHP:1,2019-09-09T22:54:00,28.1530,-82.8010,0.058,11111222 
COMPS,ioos:station:USF.COMPS:FHP:1,2019-09-09T23:54:00,28.1530,-82.8010,0.205,11111222 
COMPS,ioos:station:USF.COMPS:FHP:1,2019-09-10T00:54:00,28.1530,-82.8010,0.349,11111222 
COMPS,ioos:station:USF.COMPS:FHP:1,2019-09-10T01:54:00,28.1530,-82.8010,0.476,11111222 
COMPS,ioos:station:USF.COMPS:FHP:1,2019-09-10T02:54:00,28.1530,-82.8010,0.502,11111222 
COMPS,ioos:station:USF.COMPS:FHP:1,2019-09-10T03:54:00,28.1530,-82.8010,0.369,11111222 
COMPS,ioos:station:USF.COMPS:FHP:1,2019-09-10T04:54:00,28.1530,-82.8010,0.427,11111222 
COMPS,ioos:station:USF.COMPS:FHP:1,2019-09-10T05:54:00,28.1530,-82.8010,0.459,11111222 
COMPS,ioos:station:USF.COMPS:FHP:1,2019-09-10T06:54:00,28.1530,-82.8010,0.296,11111222 
COMPS,ioos:station:USF.COMPS:FHP:1,2019-09-10T07:54:00,28.1530,-82.8010,0.239,11111222 
COMPS,ioos:station:USF.COMPS:FHP:1,2019-09-10T08:54:00,28.1530,-82.8010,0.253,11111222 
COMPS,ioos:station:USF.COMPS:FHP:1,2019-09-10T09:48:00,28.1530,-82.8010,0.304,11111222 
COMPS,ioos:station:USF.COMPS:FHP:1,2019-09-10T10:54:00,28.1530,-82.8010,0.396,11111222 
COMPS,ioos:station:USF.COMPS:FHP:1,2019-09-10T11:54:00,28.1530,-82.8010,0.477,11111222 
COMPS,ioos:station:USF.COMPS:FHP:1,2019-09-10T12:54:00,28.1530,-82.8010,0.591,11111222 
COMPS,ioos:station:USF.COMPS:FHP:1,2019-09-10T13:54:00,28.1530,-82.8010,0.632,11111222 
COMPS,ioos:station:USF.COMPS:FHP:1,2019-09-10T14:54:00,28.1530,-82.8010,0.669,11111222 
COMPS,ioos:station:USF.COMPS:FHP:1,2019-09-10T15:54:00,28.1530,-82.8010,0.597,11111222 
COMPS,ioos:station:USF.COMPS:FHP:1,2019-09-10T16:54:00,28.1530,-82.8010,0.476,11111222 
COMPS,ioos:station:USF.COMPS:FHP:1,2019-09-10T17:54:00,28.1530,-82.8010,0.335,11111222 
COMPS,ioos:station:USF.COMPS:FHP:1,2019-09-10T18:54:00,28.1530,-82.8010,0.152,11111222 
COMPS,ioos:station:USF.COMPS:FHP:1,2019-09-10T19:54:00,28.1530,-82.8010,0.004,11111222 
COMPS,ioos:station:USF.COMPS:FHP:1,2019-09-10T20:54:00,28.1530,-82.8010,-0.115,11114222 
COMPS,ioos:station:USF.COMPS:FHP:1,2019-09-10T21:54:00,28.1530,-82.8010,-0.132,11114222 
COMPS,ioos:station:USF.COMPS:FHP:1,2019-09-10T22:54:00,28.1530,-82.8010,-0.109,11114222 
COMPS,ioos:station:USF.COMPS:FHP:1,2019-09-10T23:54:00,28.1530,-82.8010,0.004,11111222 
COMPS,ioos:station:USF.COMPS:FHP:1,2019-09-11T00:54:00,28.1530,-82.8010,0.149,11111222 
COMPS,ioos:station:USF.COMPS:FHP:1,2019-09-11T01:54:00,28.1530,-82.8010,0.296,11111222 
COMPS,ioos:station:USF.COMPS:FHP:1,2019-09-11T02:54:00,28.1530,-82.8010,0.375,11111222 
COMPS,ioos:station:USF.COMPS:FHP:1,2019-09-11T03:54:00,28.1530,-82.8010,0.437,11111222 
COMPS,ioos:station:USF.COMPS:FHP:1,2019-09-11T04:54:00,28.1530,-82.8010,0.4,11111222 
COMPS,ioos:station:USF.COMPS:FHP:1,2019-09-11T05:54:00,28.1530,-82.8010,0.32,11111222 
COMPS,ioos:station:USF.COMPS:FHP:1,2019-09-11T06:54:00,28.1530,-82.8010,0.205,11111222 
COMPS,ioos:station:USF.COMPS:FHP:1,2019-09-11T07:54:00,28.1530,-82.8010,0.104,11111222 
COMPS,ioos:station:USF.COMPS:FHP:1,2019-09-11T08:54:00,28.1530,-82.8010,0.055,11111222 
COMPS,ioos:station:USF.COMPS:FHP:1,2019-09-11T09:54:00,28.1530,-82.8010,0.065,11111222 
COMPS,ioos:station:USF.COMPS:FHP:1,2019-09-11T10:54:00,28.1530,-82.8010,0.161,11111222 
COMPS,ioos:station:USF.COMPS:FHP:1,2019-09-11T11:54:00,28.1530,-82.8010,0.285,11111222 
COMPS,ioos:station:USF.COMPS:FHP:1,2019-09-11T12:54:00,28.1530,-82.8010,0.481,11111222 
COMPS,ioos:station:USF.COMPS:FHP:1,2019-09-11T13:54:00,28.1530,-82.8010,0.598,11111222 
COMPS,ioos:station:USF.COMPS:FHP:1,2019-09-11T14:54:00,28.1530,-82.8010,0.625,11111222 
COMPS,ioos:station:USF.COMPS:FHP:1,2019-09-11T15:54:00,28.1530,-82.8010,0.606,11111222 
COMPS,ioos:station:USF.COMPS:FHP:1,2019-09-11T16:54:00,28.1530,-82.8010,0.503,11111222 
COMPS,ioos:station:USF.COMPS:FHP:1,2019-09-11T17:54:00,28.1530,-82.8010,0.364,11111222 
COMPS,ioos:station:USF.COMPS:FHP:1,2019-09-11T18:54:00,28.1530,-82.8010,0.173,11111222 
COMPS,ioos:station:USF.COMPS:FHP:1,2019-09-11T19:54:00,28.1530,-82.8010,-0.006,11114222 
COMPS,ioos:station:USF.COMPS:FHP:1,2019-09-11T20:54:00,28.1530,-82.8010,-0.148,11114222 
COMPS,ioos:station:USF.COMPS:FHP:1,2019-09-11T21:54:00,28.1530,-82.8010,-0.253,11114222 
COMPS,ioos:station:USF.COMPS:FHP:1,2019-09-11T22:54:00,28.1530,-82.8010,-0.271,11114222 
COMPS,ioos:station:USF.COMPS:FHP:1,2019-09-11T23:54:00,28.1530,-82.8010,-0.166,11114222 
COMPS,ioos:station:USF.COMPS:FHP:1,2019-09-12T00:54:00,28.1530,-82.8010,0.011,11111222 
COMPS,ioos:station:USF.COMPS:FHP:1,2019-09-12T01:54:00,28.1530,-82.8010,0.171,11111222 
COMPS,ioos:station:USF.COMPS:FHP:1,2019-09-12T02:54:00,28.1530,-82.8010,0.322,11111222 
COMPS,ioos:station:USF.COMPS:FHP:1,2019-09-12T03:54:00,28.1530,-82.8010,0.4,11111222 
COMPS,ioos:station:USF.COMPS:FHP:1,2019-09-12T04:48:00,28.1530,-82.8010,0.4,11111222 
COMPS,ioos:station:USF.COMPS:FHP:1,2019-09-12T05:54:00,28.1530,-82.8010,0.303,11111222 
COMPS,ioos:station:USF.COMPS:FHP:1,2019-09-12T06:54:00,28.1530,-82.8010,0.208,11111222 
COMPS,ioos:station:USF.COMPS:FHP:1,2019-09-12T07:54:00,28.1530,-82.8010,0.086,11111222 
COMPS,ioos:station:USF.COMPS:FHP:1,2019-09-12T08:54:00,28.1530,-82.8010,0.058,11111222 
COMPS,ioos:station:USF.COMPS:FHP:1,2019-09-12T09:54:00,28.1530,-82.8010,-0.002,11114222 
COMPS,ioos:station:USF.COMPS:FHP:1,2019-09-12T10:54:00,28.1530,-82.8010,0.035,11111222 
COMPS,ioos:station:USF.COMPS:FHP:1,2019-09-12T11:54:00,28.1530,-82.8010,0.175,11111222 